GLOBALSTAR M001 1 25162U 98008A 09184.49240664 -.00000084 00000-0 10000-3 0 3090 2 25162 52.0053 11.2873 0000942 133.2044 226.8901 12.37978655521961 GLOBALSTAR M004 1 25163U 98008B 09184.41908101 -.00000086 00000-0 10000-3 0 3520 2 25163 51.9984 189.1228 0002809 339.4705 20.6041 12.63152649525235 GLOBALSTAR M002 1 25164U 98008C 09183.77319018 -.00000071 00000-0 10000-3 0 2446 2 25164 52.0013 92.7018 0001060 351.5250 8.5553 11.61425074506891 GLOBALSTAR M003 1 25165U 98008D 09183.49609284 -.00000086 00000-0 10000-3 0 3642 2 25165 51.9936 197.4089 0000334 170.2383 189.8488 12.62268649524986 GLOBALSTAR M014 1 25306U 98023A 09184.43897007 -.00000084 00000-0 10000-3 0 2358 2 25306 51.9924 254.0001 0010436 171.1407 188.9633 12.38375551509467 GLOBALSTAR M006 1 25307U 98023B 09184.06308244 -.00000086 00000-0 10000-3 0 651 2 25307 51.9981 241.8430 0001127 160.1942 199.8965 12.62263768516224 GLOBALSTAR M015 1 25308U 98023C 09183.64748767 -.00000086 00000-0 10000-3 0 743 2 25308 51.9967 242.5431 0002301 200.8687 159.2085 12.62266435516172 GLOBALSTAR M008 1 25309U 98023D 09184.10276260 -.00000086 00000-0 10000-3 0 492 2 25309 51.9947 240.9629 0001004 128.1390 231.9569 12.62265185516248 GLOBALSTAR M023 1 25621U 99004A 09183.40424435 -.00000086 00000-0 10000-3 0 412 2 25621 52.0097 157.0445 0009198 207.0445 152.9943 12.62226191479674 GLOBALSTAR M040 1 25622U 99004B 09183.42408687 -.00000086 00000-0 10000-3 0 236 2 25622 51.9907 152.6459 0001485 305.8368 54.2361 12.62268117479695 GLOBALSTAR M036 1 25623U 99004C 09184.41454378 -.00000086 00000-0 10000-3 0 9874 2 25623 51.9994 151.5263 0000709 300.3765 59.7030 12.62260200479836 GLOBALSTAR M038 1 25624U 99004D 09184.14464914 -.00000086 00000-0 10000-3 0 9872 2 25624 52.0020 108.1662 0001616 346.3828 13.6990 12.62267754480543 GLOBALSTAR M022 1 25649U 99012A 09184.44156566 -.00000084 00000-0 10000-3 0 9599 2 25649 52.0109 358.4296 0001201 65.0642 295.0341 12.38625865474138 GLOBALSTAR M041 1 25650U 99012B 09184.79955191 -.00000086 00000-0 10000-3 0 9941 2 25650 52.0102 286.8001 0002283 159.8779 200.2176 12.62268704475446 GLOBALSTAR M046 1 25651U 99012C 09183.73894664 -.00000086 00000-0 10000-3 0 9997 2 25651 52.0062 288.1958 0002071 131.3503 228.7539 12.62259944475290 GLOBALSTAR M037 1 25652U 99012D 09183.77852634 -.00000086 00000-0 10000-3 0 9757 2 25652 52.0059 289.3489 0002528 124.5422 235.5677 12.62266379475266 GLOBALSTAR M045 1 25676U 99019A 09183.79833497 -.00000086 00000-0 10000-3 0 984 2 25676 51.9978 287.1943 0002350 174.9818 185.1072 12.62259126472866 GLOBALSTAR M019 1 25677U 99019B 09183.88981694 -.00000086 00000-0 10000-3 0 9987 2 25677 51.9961 331.6952 0002132 126.8864 233.2199 12.62263559472825 GLOBALSTAR M044 1 25678U 99019C 09184.23378943 -.00000086 00000-0 10000-3 0 9974 2 25678 52.0041 287.7994 0002262 149.5301 210.5708 12.62256647472268 GLOBALSTAR M042 1 25679U 99019D 09184.07846834 -.00000086 00000-0 10000-3 0 876 2 25679 52.0050 17.8659 0002167 68.9582 291.1515 12.62269643471415 GLOBALSTAR M025 1 25770U 99031A 09183.79084564 -.00000086 00000-0 10000-3 0 9389 2 25770 51.9983 332.5793 0002011 118.0486 242.0573 12.62258266464133 GLOBALSTAR M049 1 25771U 99031B 09183.77104663 -.00000086 00000-0 10000-3 0 1440 2 25771 51.9965 332.2402 0002181 91.3437 268.7671 12.62263882464139 GLOBALSTAR M047 1 25772U 99031C 09183.75140331 -.00000086 00000-0 10000-3 0 147 2 25772 51.9978 332.2865 0002311 119.1970 240.9120 12.62265361464138 GLOBALSTAR M052 1 25773U 99031D 09184.36813062 -.00000086 00000-0 10000-3 0 8669 2 25773 51.9949 329.2707 0002494 104.7701 255.3439 12.62262613464211 GLOBALSTAR M035 1 25851U 99037A 09184.90004130 -.00000061 00000-0 10000-3 0 7684 2 25851 51.9933 89.5802 0013298 264.2945 95.6331 11.04476671452386 GLOBALSTAR M032 1 25852U 99037B 09184.49379707 -.00000086 00000-0 10000-3 0 9166 2 25852 52.0026 15.7322 0001677 71.5153 288.5898 12.62265074460465 GLOBALSTAR M051 1 25853U 99037C 09183.72389918 -.00000086 00000-0 10000-3 0 9280 2 25853 52.0015 18.0025 0000752 52.2855 307.8072 12.62261450460360 GLOBALSTAR M030 1 25854U 99037D 09184.06037594 -.00000086 00000-0 10000-3 0 9313 2 25854 52.0032 17.2679 0001675 94.5356 265.5699 12.62270244460407 GLOBALSTAR M048 1 25872U 99041A 09183.81581076 -.00000086 00000-0 10000-3 0 9678 2 25872 52.0075 64.0874 0001544 42.0428 318.0640 12.62262235458491 GLOBALSTAR M026 1 25873U 99041B 09184.17450507 -.00000086 00000-0 10000-3 0 9505 2 25873 52.0074 63.2956 0001480 64.5206 295.5813 12.62265734458538 GLOBALSTAR M043 1 25874U 99041C 09184.82493679 -.00000086 00000-0 10000-3 0 9583 2 25874 52.0045 61.1223 0000580 85.7817 274.2928 12.62266114458617 GLOBALSTAR M028 1 25875U 99041D 09183.77618991 -.00000086 00000-0 10000-3 0 9325 2 25875 52.0061 64.0184 0000903 46.4089 313.6952 12.62260644458480 GLOBALSTAR M024 1 25883U 99043A 09183.78827164 -.00000086 00000-0 10000-3 0 9422 2 25883 52.0074 110.0569 0001287 356.3817 3.7032 12.62269379455601 GLOBALSTAR M027 1 25884U 99043B 09184.08528281 -.00000086 00000-0 10000-3 0 9278 2 25884 52.0072 109.0512 0000401 36.6797 323.4091 12.62265216455645 GLOBALSTAR M054 1 25885U 99043C 09183.74875224 -.00000084 00000-0 10000-3 0 9013 2 25885 52.0132 311.6415 0001837 182.5841 177.5005 12.38271091451977 GLOBALSTAR M053 1 25886U 99043D 09184.29473512 -.00000086 00000-0 10000-3 0 9392 2 25886 52.0074 108.4837 0000479 90.2275 269.8640 12.62259265455677 GLOBALSTAR M058 1 25907U 99049A 09184.12478863 -.00000086 00000-0 10000-3 0 9411 2 25907 51.9959 106.5745 0000548 297.0167 63.0637 12.62266925451905 GLOBALSTAR M050 1 25908U 99049B 09184.19178456 -.00000079 00000-0 10000-3 0 9168 2 25908 52.0007 272.1107 0007648 291.0660 68.9356 12.07306567448942 GLOBALSTAR M033 1 25909U 99049C 09184.26860151 -.00000086 00000-0 10000-3 0 9323 2 25909 51.9968 106.3148 0000812 321.5625 38.5183 12.62259239451901 GLOBALSTAR M055 1 25910U 99049D 09184.39476427 -.00000086 00000-0 10000-3 0 9508 2 25910 51.9991 151.0205 0000746 290.9793 69.0989 12.62258998451174 GLOBALSTAR M057 1 25943U 99058A 09183.26426102 -.00000086 00000-0 10000-3 0 4048 2 25943 51.9990 244.7346 0001912 150.4002 209.6998 12.62259377447735 GLOBALSTAR M059 1 25944U 99058B 09184.16211107 -.00000086 00000-0 10000-3 0 9142 2 25944 52.0049 242.2928 0002269 183.1488 176.9365 12.62261732447876 GLOBALSTAR M056 1 25945U 99058C 09184.40793816 -.00000086 00000-0 10000-3 0 2538 2 25945 51.9957 195.1642 0000155 38.8815 321.2057 12.62255699448648 GLOBALSTAR M031 1 25946U 99058D 09184.11003952 -.00000086 00000-0 10000-3 0 9326 2 25946 51.9962 196.7150 0003107 253.0111 107.0407 12.62258480448624 GLOBALSTAR M039 1 25961U 99062A 09184.03861294 -.00000086 00000-0 10000-3 0 2165 2 25961 51.9965 16.0188 0001860 69.2783 290.8279 12.62262404444237 GLOBALSTAR M034 1 25962U 99062B 09183.20210358 -.00000086 00000-0 10000-3 0 105 2 25962 52.0000 64.7787 0002536 15.0594 345.0336 12.62262778443347 GLOBALSTAR M029 1 25963U 99062C 09184.83012954 -.00000086 00000-0 10000-3 0 2313 2 25963 51.9914 148.7179 0001347 298.4679 61.6052 12.62258547454042 GLOBALSTAR M061 1 25964U 99062D 09184.17707812 -.00000074 00000-0 10000-3 0 8925 2 25964 51.9771 146.1185 0005479 169.1384 190.9557 11.76682511435377 GLOBALSTAR M063 1 26081U 00008A 09184.13967329 -.00000086 00000-0 10000-3 0 9918 2 26081 51.9976 196.6118 0000997 231.2881 128.7891 12.62265787441997 GLOBALSTAR M062 1 26082U 00008B 09183.78854482 -.00000086 00000-0 10000-3 0 8935 2 26082 52.0091 334.2231 0002222 136.9375 223.1651 12.62260284433651 GLOBALSTAR M060 1 26083U 00008C 09183.67963983 -.00000086 00000-0 10000-3 0 9808 2 26083 52.0054 244.8533 0001620 180.7303 179.3559 12.62266038441146 GLOBALSTAR M064 1 26084U 00008D 09183.62539193 -.00000086 00000-0 10000-3 0 1998 2 26084 52.0038 199.6319 0001397 205.4048 154.6748 12.62276156459888 GLOBALSTAR M065 1 31571U 07020A 09183.90699052 -.00000101 00000-0 17675-4 0 6526 2 31571 51.9937 332.2764 0002659 123.7318 236.3803 12.62267650 97702 GLOBALSTAR M069 1 31573U 07020C 09183.73383483 -.00000086 00000-0 10000-3 0 3395 2 31573 51.9970 288.1404 0001313 152.0639 208.0291 12.62262601 98415 GLOBALSTAR M072 1 31574U 07020D 09183.84267824 -.00000101 00000-0 17039-4 0 6568 2 31574 52.0095 18.5654 0000895 56.7494 303.3449 12.62256293 96930 GLOBALSTAR M071 1 31576U 07020F 09183.37765269 -.00000086 00000-0 10000-3 0 3541 2 31576 52.0089 289.6217 0001281 91.0216 269.0800 12.62266469 98369 GLOBALSTAR M067 1 32263U 07048A 09184.12460353 -.00000104 00000-0 00000+0 0 6038 2 32263 51.9737 151.3583 0001060 299.7733 60.3023 12.62257298 80144 GLOBALSTAR M070 1 32264U 07048B 09183.63994263 -.00000086 00000-0 10000-3 0 5523 2 32264 51.9787 242.8955 0000969 123.9240 236.1718 12.62259622 78578 GLOBALSTAR M066 1 32265U 07048C 09184.30789569 -.00000104 00000-0 00000+0 0 6099 2 32265 51.9680 105.7374 0000495 69.8995 290.1926 12.62261874 80882 GLOBALSTAR M068 1 32266U 07048D 09183.81812250 -.00000086 00000-0 10000-3 0 6194 2 32266 51.9853 63.1383 0000864 8.9240 351.1635 12.62259941 81584